Atyray, Kazakhstan

8:52 PM AQTT on September 04, 2015 (GMT +0500)
Atyrau | | Change Station
CLOSE
Current Station
Airport
Location: Atyrau,
Elevation: -72 ft
Nearby Weather Stations

Elev -72 ft 47.12 °N, 51.83 °E | Updated 22 minutes ago

Clear
Clear
75 °F
Feels Like 75 °F
N
4
Wind Variable Wind from SW

Today
High -- | Low -- °F
--% Chance of Precip.
Yesterday
High -- | Low -- °F
Precip. -- in
6:54 AM 8:07 PM
Waning Gibbous, 58% visible
Pressure 29.98 in
Visibility -9999.0 miles
Clouds
Dew Point 46 °F
Humidity 36%
Rainfall 0.00 in
Snow Depth Not available.
UV Not available.
Pollen Not available.
Air Quality Not available.
Flu Activity Not available.
METAR UATG 041530Z 23002MPS CAVOK 24/08 Q1015 R14/CLRD70 NOSIG RMK QFE763/1018
Pressure 29.98 in
Visibility -9999.0 miles
Clouds
Dew Point 46 °F
Humidity 36%
Rainfall 0.00 in
Snow Depth Not available.
UV Not available.
Pollen Not available.
Air Quality Not available.
Flu Activity Not available.
METAR UATG 041530Z 23002MPS CAVOK 24/08 Q1015 R14/CLRD70 NOSIG RMK QFE763/1018

10-Day Weather Forecast

×

Almanac

Astronomy

Sep. 04, 2015 Rise Set
Actual Time
Civil Twilight
Nautical Twilight
Astronomical Twilight
Moon
Length of Visible Light
Length of Day
Tomorrow will be .
, % of the Moon is Illuminated

Today's Extremes

Country Highs Country Lows

Community

WunderPhotos

Upload Photos

1,852,197 photos uploaded!

WunderBlogs® & News

Nearby

Air Quality

  Air Quality AQ Index Pollutant
Not available.

Snow Depth

Station Depth Elevation

Earthquake Activity

City Distance Mag. Time & Date
Minimum magnitude displayed is 2.5.

Coastal Water Temperatures

Place Temperature

Stations

Nearby Weather Stations

Station Location Temp. Windchill Dew Point Humidity Wind Precip. Elev Updated Type